カタログに戻る

FENGYUN 1C DEB

運用中SSO
NORAD 29851·DEBRIS·🇨🇳 China

打ち上げ May 10, 1999 から Taiyuan Satellite Launch Center

Loading…

次のパス (今後24時間)

TLE

最新Source: Space-Track

元期: Sep 14, 2026, 09:25 UTC

1 29851U 99025EV  26257.39239910  .00000237  00000-0  23712-3 0  9998
2 29851  99.5485 308.0649 0141420 219.3374 206.8088 13.83781329991790

AllMySatでFENGYUN 1C DEBをリアルタイム追跡

Download on the App Store